Location: Pine Mountain Observatory
(43.7910°N, 120.9377°W)
Time: 09:07:44
(UTC-07:00)

SR - All Passes

Search period start: 21 May 2019 00:00
Search period end: 31 May 2019 00:00
Orbit: 583 x 873 km, 66.7° (Epoch: 21 May)

Date Brightness Start Highest point End Pass type
(mag) Time Alt. Az. Time Alt. Az. Time Alt. Az.
21 May - 12:12:20 10° SSW 12:16:36 61° ESE 12:20:48 10° NE daylight
21 May - 13:56:07 10° W 13:59:00 17° NW 14:01:53 10° N daylight
21 May - 19:11:03 10° NNE 19:12:32 11° NE 19:14:03 10° NE daylight
21 May - 20:50:53 10° NNW 20:55:25 62° ENE 21:00:19 10° SE daylight
21 May - 22:34:05 10° WNW 22:37:03 17° WSW 22:40:09 10° SSW visible
22 May - 11:23:29 10° S 11:27:10 27° ESE 11:30:47 10° NE daylight
22 May - 13:05:13 10° WSW 13:09:04 31° NW 13:12:53 10° NNE daylight
22 May - 20:01:34 10° NNW 20:05:40 32° NE 20:10:02 10° ESE daylight
22 May - 21:43:30 10° NW 21:47:40 34° WSW 21:52:09 10° S visible
23 May - 10:36:01 10° SE 10:37:52 13° ESE 10:39:42 10° E daylight
23 May - 12:15:03 10° SW 12:19:19 65° WNW 12:23:33 10° NNE daylight
23 May - 14:01:19 10° NW 14:02:13 11° NW 14:03:07 10° NNW daylight
23 May - 19:12:33 10° N 19:15:45 19° NE 19:19:05 10° E daylight
23 May - 20:53:35 10° NW 20:58:11 70° WSW 21:03:09 10° SSE visible
24 May - 11:25:31 10° SSW 11:29:45 57° ESE 11:33:55 10° NE daylight
24 May - 13:09:06 10° W 13:12:06 18° NW 13:15:06 10° N daylight
24 May - 18:24:22 10° NNE 18:25:38 11° NE 18:26:54 10° NE daylight
24 May - 20:04:01 10° NNW 20:08:34 59° ENE 20:13:27 10° SE daylight
24 May - 21:47:04 10° WNW 21:50:13 18° WSW 21:53:33 10° SSW visible
25 May - 10:36:46 10° SSE 10:40:19 25° ESE 10:43:50 10° NE daylight
25 May - 12:18:17 10° WSW 12:22:11 33° NW 12:26:04 10° NNE daylight
25 May - 19:14:43 10° NNW 19:18:48 31° NE 19:23:07 10° ESE daylight
25 May - 20:56:35 10° NW 21:00:51 36° WSW 21:05:25 10° S visible
26 May - 09:49:34 10° SE 09:51:03 12° ESE 09:52:30 10° E daylight
26 May - 11:28:10 10° SW 11:32:27 70° WNW 11:36:42 10° NNE daylight
26 May - 13:14:03 10° NW 13:15:18 11° NW 13:16:34 10° NNW daylight
26 May - 18:25:44 10° N 18:28:51 18° NE 18:32:07 10° E daylight
26 May - 20:06:43 10° NW 20:11:20 75° WSW 20:16:21 10° SSE daylight
27 May - 10:38:42 10° SSW 10:42:53 52° ESE 10:47:01 10° NE daylight
27 May - 12:22:06 10° W 12:25:12 19° NW 12:28:18 10° N daylight
27 May - 17:37:45 10° NNE 17:38:43 11° NE 17:39:42 10° NE daylight
27 May - 19:17:09 10° NNW 19:21:42 55° NE 19:26:35 10° SE daylight
27 May - 21:00:03 10° WNW 21:03:24 19° WSW 21:06:55 10° SSW visible
28 May - 09:50:02 10° SSE 09:53:28 24° ESE 09:56:53 10° ENE daylight
28 May - 11:31:22 10° WSW 11:35:18 35° NW 11:39:14 10° NNE daylight
28 May - 18:27:52 10° NNW 18:31:55 29° NE 18:36:13 10° ESE daylight
28 May - 20:09:39 10° NW 20:14:01 38° WSW 20:18:41 10° S daylight
29 May - 09:03:15 10° ESE 09:04:12 11° ESE 09:05:10 10° E daylight
29 May - 10:41:18 10° SW 10:45:35 75° WNW 10:49:50 10° NNE daylight
29 May - 12:26:51 10° WNW 12:28:23 12° NW 12:29:56 10° NNW daylight
29 May - 17:38:55 10° N 17:41:57 17° NE 17:45:08 10° E daylight
29 May - 19:19:49 10° NW 19:24:29 79° WSW 19:29:32 10° SSE daylight
30 May - 09:51:54 10° S 09:56:02 49° ESE 10:00:07 10° NE daylight
30 May - 11:35:06 10° W 11:38:18 20° NW 11:41:31 10° N daylight
30 May - 16:51:16 10° NNE 16:51:48 10° NE 16:52:22 10° NE daylight
30 May - 18:30:18 10° NNW 18:34:50 52° NE 18:39:44 10° SE daylight
30 May - 20:13:04 10° WNW 20:16:35 21° WSW 20:20:17 10° SSW daylight
